Regional Weather Roundup
Issued by NWS

Home | Current Version | Previous Version | Graphics & Text | Print | Product List | Glossary On
Versions: 1 2 3 4 5 6 7 8 9 10 11 12 13 14 15 16 17 18 19 20 21 22 23 24 25 26 27 28 29 30 31 32 33 34 35 36 37 38 39 40 41 42 43 44 45 46 47 48 49 50
559
ASUS43 KMKX 221121
RWRWI

WISCONSIN REGIONAL WEATHER ROUNDUP
NATIONAL WEATHER SERVICE MILWAUKEE/SULLIVAN WI
600 AM CDT THU JUN 22 2017

NOTE: "FAIR" INDICATES FEW OR NO CLOUDS BELOW 12,000 FEET WITH NO
SIGNIFICANT WEATHER AND/OR OBSTRUCTIONS TO VISIBILITY.

WIZ001-002-006>008-014>016-023>028-221200-
NORTHWEST WISCONSIN

CITY           SKY/WX    TMP DP  RH WIND       PRES   REMARKS
SUPERIOR ARPT  NOT AVBL
ASHLAND        MOCLDY    54  52  93 S5        29.66R
HAYWARD        PTCLDY    63  59  87 S5        29.69R
SIREN          CLOUDY    64  62  91 CALM      29.70R
CUMBERLAND     MOCLDY    61  59  94 CALM      29.70R
RICE LAKE      MOCLDY    62  60  90 CALM      29.72R
CHETEK         MOCLDY    61  60  96 CALM      29.70R
LADYSMITH      PTCLDY    62  58  89 CALM      29.73R
EAU CLAIRE     CLOUDY    63  61  93 N3        29.69R
MENOMONIE      CLOUDY    65  63  91 CALM      29.71R
NEW RICHMOND   MOCLDY    64  62  94 W3        29.72R
OSCEOLA        MOCLDY    64  64 100 S6        29.74R
$$

WIZ003>005-009-010-017-018-221200-
NORTH CENTRAL WISCONSIN

CITY           SKY/WX    TMP DP  RH WIND       PRES   REMARKS
MANITOWISH WTR MOCLDY    60  60  99 S3        29.71R
ARBOR VITAE    CLOUDY    59  57  91 S6        29.72R
WOODRUFF       CLOUDY    59  57  91 S6        29.72R
RHINELANDER    MOCLDY    62  60  93 SW5       29.74R
EAGLE RIVER    CLOUDY    59  57  93 CALM      29.72R
LAND O LAKES   CLOUDY    62  57  83 SW3       29.74R
PHILLIPS       CLOUDY    61  60  95 S3        29.72R
TOMAHAWK       NOT AVBL
MEDFORD        CLOUDY    63  60  93 S5        29.73R
MERRILL        CLOUDY    64  62  94 CALM      29.73R
$$

WIZ029-030-035-036-043>047-221200-
CENTRAL WISCONSIN

CITY           SKY/WX    TMP DP  RH WIND       PRES   REMARKS
WAUSAU         CLOUDY    63  61  93 S10       29.71R
MOSINEE        PTCLDY    63  63 100 S12       29.73S
MARSHFIELD     CLOUDY    63  61  93 SW5       29.72R
STEVENS POINT  CLOUDY    61  61 100 S5        29.73F
WAUPACA        CLOUDY    65  64  97 S6        29.74S
WAUTOMA        LGT RAIN  69  67  93 SW13      29.75R
WISC RAPIDS    CLOUDY    65  64  97 S6        29.73F
CAMP DOUGLAS   CLOUDY    69  69  99 SE5       29.73S
$$

WIZ011>013-019>022-031-037>040-048>050-221200-
NORTHEAST WISCONSIN

CITY           SKY/WX    TMP DP  RH WIND       PRES   REMARKS
ANTIGO         CLOUDY    60  59  97 S5        29.74S
SHAWANO        CLOUDY    65  62  88 SW5       29.72S
OCONTO         CLOUDY    64  60  88 SW8       29.72R
STURGEON BAY     N/A     63  59  87 S10         N/A
GREEN BAY      CLOUDY    63  63 100 S10       29.74R
MANITOWOC      LGT RAIN  61  59  93 S7        29.78F FOG
APPLETON       MOCLDY    63  63 100 S7        29.75F
CLINTONVILLE   CLOUDY    63  61  94 S9        29.72F
OSHKOSH        LGT RAIN  68  65  90 SW15G22   29.74F
$$

WIZ032>034-041-042-053>061-221200-
SOUTHWEST WISCONSIN

CITY           SKY/WX    TMP DP  RH WIND       PRES   REMARKS
LA CROSSE      CLOUDY    71  69  93 E6        29.70R
SPARTA         CLOUDY    67  66  97 S5        29.73R
VIROQUA        CLOUDY    68  67  96 SW8       29.76R
BOSCOBEL       RAIN      70  66  87 W8        29.76R FOG
PRAIRIE DU CHI LGT RAIN  70  64  79 SW12G20   29.75R
PLATTEVILLE    CLOUDY    76  66  70 SW18      29.80F
$$

WIZ056-057-062-063-064-067-068-221200-
SOUTH CENTRAL WISCONSIN

CITY           SKY/WX    TMP DP  RH WIND       PRES   REMARKS
REEDSBURG      LGT RAIN  68  68 100 S12       29.77R
BARABOO/DELLS  LGT RAIN  67  65  94 CALM      29.79R
LONE ROCK      LGT RAIN  71  67  87 S5        29.75F FOG
MINERAL POINT  LGT RAIN  75  68  78 SW14      29.80S
MADISON        LGT RAIN  69  66  90 E5        29.78F
MIDDLETON      CLOUDY    70  67  92 SE7       29.80F
WATERTOWN      CLOUDY    67  67 100 CALM      29.81F
MONROE         CLOUDY    75  63  64 SW18G26   29.83R
JANESVILLE     CLOUDY    75  64  69 SW8       29.83R
$$

WIZ051-052-058>065-066-070>072-221200-
SOUTHEAST WISCONSIN

CITY           SKY/WX    TMP DP  RH WIND       PRES   REMARKS
MILWAUKEE      CLOUDY    73  65  75 W13       29.80R
WAUKESHA       LGT RAIN  64  59  82 SW9       29.83R
MILWAUKEE/TIMM CLOUDY    70  61  73 W14       29.81R
RACINE         PTCLDY    75  66  73 SW13G22   29.81R
KENOSHA        PTCLDY    76  66  71 SW14      29.81R
FOND DU LAC    TSTM      68  63  84 SW9G20    29.80R
SHEBOYGAN      LGT RAIN  63  63 100 CALM      29.80R
WEST BEND      LGT RAIN  70  64  83 W16G24    29.80R
JUNEAU         TSTM      64  63  95 CALM      29.83F
$$

LSZ147-162-221200-
LAKE SUPERIOR

STATION/POSITION TIME  TEMP    WIND        PRES    WAVE
                       AIR SEA DIR/SP/G            HT/PER
                 (UTC) (F)     (DEG/KT/KT) (MB)    (FT/S)
W MID LAKE BUOY  1050   47 39  200/ 10/ 10 1003.0S   1
DEVILS ISLAND    1100   51     280/  7/  9 1004.2R
SAXON HARBOR     1040   63     210/  5/  6 1003.7R
$$

LMZ867-665-643>646-221200-
LAKE MICHIGAN

STATION/POSITION TIME  TEMP    WIND        PRES    WAVE
                       AIR SEA DIR/SP/G            HT/PER
                 (UTC) (F)     (DEG/KT/KT) (MB)    (FT/S)
CHAMBERS ISLAND  1040   63     160/  2/  5 1006.4S
N MID LAKE BUOY  1050   58 55  180/ 17/ 19 1007.1F   2/ 3
NORTHPORT PIER   1040   62     150/  6/  9 1006.8S
KEWAUNEE LAKESHO 1054   62     190/ 14/ 16 1007.1R
SHEBOYGAN LAKESH 1100   60      CALM  /  1 1009.0R
PORT WASHINGTON  1100          260/  8/ 13 1010.2
ATWATER BUOY     1039   69 55  230/ 12/ 16 1009.1R
MILWAUKEE LAKESH 1100   72     240/ 13/ 16   N/A
S MID LAKE BUOY  1050   66 61  200/ 16/ 19 1008.9R   2/ 3
KENOSHA   LAKESH 1100   77     230/ 13/ 20 1009.1
$$

TC  - TEMPERATURE IN CELSIUS
VSB - VISIBILITY IN STATUTE MILES
WCI - WIND CHILL INDEX
HX  - HEAT INDEX





USA.gov is the U.S. government's official web portal to all federal, state and local government web resources and services.